User: anonymous   Login
Location: SAPM � Hemmingford
(45.0500°N, 73.5833°W)
Time: 09:43:10
(UTC-04:00)
Language:

Cosmos 1603 - Orbit

View from above orbital plane
View from above orbital plane
View from above satellite
View from above satellite

Ground track
Ground track

The orbit data is extracted from the following two-line orbital elements,

1 15333U 84106A   15087.82140896 -.00000148  00000-0 -52680-4 0  9993
2 15333 071.0298 351.2634 0019926 354.5987 071.8165 14.13994312573578
Epoch (UTC): 28 March 2015 19:42:49
Eccentricity: 0.0019926
inclination: 71.0298°
perigee height: 831 km
apogee height: 860 km
right ascension of ascending node: 351.2634°
argument of perigee: 354.5987°
revolutions per day: 14.13994312
mean anomaly at epoch: 71.8165°
orbit number at epoch: 57357

The dashed part of the orbit path shows where the satellite is in the earth's shadow,  

DLR